KANOPUS-V 5 (43876 NORAD) Tracking and Keplerian Element Data

This shows tracking and keplerian element data for the satellite.

Feedback or suggestion? Click here.




ElementValue
Catalog43876
NameKANOPUS-V 5
Epoch Orbit111
Epoch Day16.82469201
Epoch Year2019
RAAN286.776
Inclination97.4678
Eccentricity0.000436
Argument of Perigee29.7801
Mean Anonmoly330.3681
Mean Motion15.19451235
Decay Rate8.9E-07
L11 43876U 18111A 19016.82469201 .00000089 00000-0 74172-5 0 9992
L22 43876 97.4678 286.7760 0004360 29.7801 330.3681 15.19451235 1110

Live tracking and technical data element details for KANOPUS-V 5 (NORAD 43876). KANOPUS-V 5 can be tracked NOW for your location showing map with azimuth and elevation plus other details from your city location.

Track the satellite on the map from your city or location and see movement details for azimuth, elevation, latitude, longitude, range, height, and movement on the map or in text.







IsCatalogInMostPopularTable: catalog: 43876, numindb: 15
Update: records affected: 1



GetName: 43876 KANOPUS-V 5

Hit Count: updated at: Thu, 17 Jan 2019 16:11:18 GMT